Location: Newark
(52.0178°N, 4.7453°W)
Time: 14:22:47
(UTC+00:00)

N. Korean satellite - Visible Passes

Search period start: 16 October 2019 00:00
Search period end: 26 October 2019 00:00
Orbit: 455 x 508 km, 97.2° (Epoch: 15 October)

Date Brightness Start Highest point End Pass type
(mag) Time Alt. Az. Time Alt. Az. Time Alt. Az.
17 Oct 7.9 06:03:39 10° NNE 06:07:07 46° E 06:10:37 10° S visible
17 Oct 9.9 18:19:00 10° SW 18:21:23 18° W 18:23:49 10° NW visible
18 Oct 9.2 05:38:41 10° NE 05:41:42 25° E 05:44:44 10° SSE visible
18 Oct 8.7 17:52:48 10° SSW 17:55:54 32° W 17:59:04 10° NNW visible
19 Oct 10.1 05:14:10 10° NE 05:16:11 14° E 05:18:13 10° ESE visible
20 Oct 10.3 18:37:45 10° WSW 18:39:03 12° W 18:40:23 10° WNW visible
21 Oct 8.3 05:55:53 10° NNE 05:59:17 38° E 06:02:44 10° SSE visible
21 Oct 9.5 18:10:48 10° SW 18:13:30 21° W 18:16:14 10° NW visible
22 Oct 9.5 05:31:00 10° NE 05:33:50 21° E 05:36:42 10° SE visible
22 Oct 8.2 17:44:47 10° S 17:48:02 39° W 17:51:20 10° NNW visible
23 Oct 10.3 05:06:47 10° ENE 05:08:18 12° E 05:09:49 10° ESE visible
24 Oct 7.3 06:13:12 10° NNE 06:16:50 61° ESE 06:20:28 10° S visible
24 Oct 10.1 18:29:10 10° WSW 18:31:07 14° W 18:33:04 10° NW visible
25 Oct 8.7 05:48:06 10° NNE 05:51:25 32° E 05:54:46 10° SSE visible
25 Oct 9.1 18:02:38 10° SSW 18:05:34 25° W 18:08:33 10° NW visible
